,,,PA_Meas_PMT16A,,PR_Meas_QMR101_102,,RH_Meas_QMH101,,SR_Meas_QMS101,,TA_Meas_QMH101,,GenWind,,GenWind,
date,time,status,PA,status,PR,status,RH,status,SR,status,TA,status,DirAvg,status,SpdAvg,
2012-03-09, 00:00:05,VALID,1001.57,VALID,0,VALID,90.1276,VALID,0,VALID,24.5777,VALID,346,VALID,0.573828,
2012-03-09, 00:01:05,VALID,1001.58,VALID,0,VALID,89.853,VALID,0,VALID,24.5582,VALID,347,VALID,1.16211,
2012-03-09, 00:02:05,VALID,1001.54,VALID,0,VALID,89.9445,VALID,0,VALID,24.5796,VALID,19,VALID,0.763281,
2012-03-09, 00:03:05,VALID,1001.56,VALID,0,VALID,89.9674,VALID,0,VALID,24.5796,VALID,346,VALID,0.764063,
2012-03-09, 00:04:05,VALID,1001.51,VALID,0,VALID,90.0742,VALID,0,VALID,24.5582,VALID,350,VALID,0.844531,
2012-03-09, 00:05:05,VALID,1001.47,VALID,0,VALID,90.0894,VALID,0,VALID,24.5601,VALID,343,VALID,0.573047,
2012-03-09, 00:06:05,VALID,1001.51,VALID,0,VALID,90.1505,VALID,0,VALID,24.5601,VALID,350,VALID,0.529688,
2012-03-09, 00:07:05,VALID,1001.44,VALID,0,VALID,89.8758,VALID,0.0815089,VALID,24.5406,VALID,344,VALID,1.13867,
2012-03-09, 00:08:05,VALID,1001.42,VALID,0,VALID,89.8987,VALID,0,VALID,24.5388,VALID,311,VALID,0.800391,
2012-03-09, 00:09:05,VALID,1001.4,VALID,0,VALID,89.8682,VALID,0,VALID,24.5388,VALID,348,VALID,0.742578,
2012-03-09, 00:10:05,VALID,1001.37,VALID,0,VALID,89.9674,VALID,0,VALID,24.5601,VALID,1,VALID,0.778906,
2012-03-09, 00:11:05,VALID,1001.34,VALID,0,VALID,89.7385,VALID,0.0815089,VALID,24.5388,VALID,343,VALID,0.955078,
2012-03-09, 00:12:05,VALID,1001.34,VALID,0,VALID,89.8453,VALID,0.0815089,VALID,24.5601,VALID,335,VALID,0.469531,
2012-03-09, 00:13:05,VALID,1001.29,VALID,0,VALID,89.9521,VALID,0,VALID,24.5193,VALID,348,VALID,0.497656,
2012-03-09, 00:14:05,VALID,1001.28,VALID,0,VALID,89.769,VALID,0,VALID,24.5406,VALID,342,VALID,1.17422,
2012-03-09, 00:15:05,VALID,1001.27,VALID,0,VALID,89.6699,VALID,0.0815089,VALID,24.4998,VALID,353,VALID,1.04844,
2012-03-09, 00:16:05,VALID,1001.27,VALID,0,VALID,89.7309,VALID,0,VALID,24.5212,VALID,359,VALID,0.627734,
2012-03-09, 00:17:05,VALID,1001.23,VALID,0,VALID,89.914,VALID,0,VALID,24.5406,VALID,359,VALID,0.580078,
2012-03-09, 00:18:05,VALID,1001.25,VALID,0,VALID,89.7614,VALID,0,VALID,24.4998,VALID,350,VALID,0.585547,
2012-03-09, 00:19:05,VALID,1001.22,VALID,0,VALID,89.6546,VALID,0,VALID,24.4998,VALID,343,VALID,0.975781,
2012-03-09, 00:20:05,VALID,1001.2,VALID,0,VALID,89.7004,VALID,0,VALID,24.4998,VALID,329,VALID,0.598047,
2012-03-09, 00:21:05,VALID,1001.19,VALID,0,VALID,89.7309,VALID,0,VALID,24.4998,VALID,344,VALID,0.453125,
2012-03-09, 00:22:05,VALID,1001.16,VALID,0,VALID,89.6393,VALID,0,VALID,24.5406,VALID,333,VALID,1.01602,
2012-03-09, 00:23:05,VALID,1001.16,VALID,0,VALID,89.7461,VALID,0,VALID,24.5212,VALID,343,VALID,0.498828,
2012-03-09, 00:24:05,VALID,1001.17,VALID,0,VALID,89.6622,VALID,0.0815089,VALID,24.4998,VALID,343,VALID,0.626172,
2012-03-09, 00:25:05,VALID,1001.15,VALID,0,VALID,89.6851,VALID,0,VALID,24.5193,VALID,338,VALID,0.7875,
2012-03-09, 00:26:05,VALID,1001.12,VALID,0,VALID,89.5325,VALID,0,VALID,24.4804,VALID,333,VALID,0.695313,
2012-03-09, 00:27:05,VALID,1001.13,VALID,0,VALID,89.6317,VALID,0,VALID,24.4804,VALID,350,VALID,0.655469,
2012-03-09, 00:28:05,VALID,1001.13,VALID,0,VALID,89.5631,VALID,0,VALID,24.4396,VALID,344,VALID,0.710156,
2012-03-09, 00:29:05,VALID,1001.13,VALID,0,VALID,89.5173,VALID,0.0815089,VALID,24.4609,VALID,344,VALID,0.519922,
2012-03-09, 00:30:05,VALID,1001.11,VALID,0,VALID,89.6851,VALID,0,VALID,24.4822,VALID,344,VALID,0.284375,
2012-03-09, 00:31:05,VALID,1001.1,VALID,0,VALID,89.7233,VALID,0,VALID,24.4609,VALID,344,VALID,0.417969,
2012-03-09, 00:32:05,VALID,1001.1,VALID,0,VALID,89.5402,VALID,0,VALID,24.4238,VALID,343,VALID,0.591406,
2012-03-09, 00:33:05,VALID,1001.1,VALID,0,VALID,89.7233,VALID,0,VALID,24.4238,VALID,336,VALID,0.323828,
2012-03-09, 00:34:05,VALID,1001.06,VALID,0,VALID,89.853,VALID,0,VALID,24.4238,VALID,336,VALID,0.233203,
2012-03-09, 00:35:05,VALID,1001.07,VALID,0,VALID,89.8835,VALID,0,VALID,24.4025,VALID,336,VALID,0.331641,
2012-03-09, 00:36:05,VALID,1001.05,VALID,0,VALID,89.8377,VALID,0,VALID,24.4238,VALID,345,VALID,0.567187,
2012-03-09, 00:37:05,VALID,1001.03,VALID,0,VALID,89.7843,VALID,0,VALID,24.4043,VALID,343,VALID,0.513281,
2012-03-09, 00:38:05,VALID,1001.01,VALID,0,VALID,89.8224,VALID,0,VALID,24.383,VALID,342,VALID,0.430078,
2012-03-09, 00:39:05,VALID,1001,VALID,0,VALID,89.8911,VALID,0,VALID,24.4238,VALID,343,VALID,0.398438,
2012-03-09, 00:40:05,VALID,1001.01,VALID,0,VALID,89.9216,VALID,0,VALID,24.4025,VALID,343,VALID,0.161719,
2012-03-09, 00:41:05,VALID,1001,VALID,0,VALID,89.975,VALID,0,VALID,24.4043,VALID,343,VALID,0.0558594,
2012-03-09, 00:42:05,VALID,1000.99,VALID,0,VALID,89.9445,VALID,0,VALID,24.4043,VALID,341,VALID,0.413281,
2012-03-09, 00:43:05,VALID,1000.96,VALID,0,VALID,90.0284,VALID,0,VALID,24.4257,VALID,341,VALID,0,
2012-03-09, 00:44:05,VALID,1000.98,VALID,0,VALID,90.1123,VALID,0,VALID,24.3849,VALID,333,VALID,0.148828,
2012-03-09, 00:45:05,VALID,1000.97,VALID,0,VALID,90.1963,VALID,0,VALID,24.3849,VALID,333,VALID,0,
2012-03-09, 00:46:04,VALID,1000.95,VALID,0,VALID,90.2191,VALID,0,VALID,24.3654,VALID,333,VALID,0.00429688,
2012-03-09, 00:47:04,VALID,1000.96,VALID,0,VALID,90.2268,VALID,0,VALID,24.3246,VALID,332,VALID,0.308203,
2012-03-09, 00:48:04,VALID,1000.96,VALID,0,VALID,90.0818,VALID,0,VALID,24.3459,VALID,298,VALID,0.630859,
2012-03-09, 00:49:04,VALID,1000.93,VALID,0,VALID,90.1963,VALID,0,VALID,24.3459,VALID,278,VALID,0.290625,
2012-03-09, 00:50:04,VALID,1000.91,VALID,0,VALID,89.9598,VALID,0,VALID,24.3654,VALID,287,VALID,0.785547,
2012-03-09, 00:51:04,VALID,1000.89,VALID,0,VALID,89.5631,VALID,0,VALID,24.3654,VALID,285,VALID,0.625391,
2012-03-09, 00:52:04,VALID,1000.89,VALID,0,VALID,89.3571,VALID,0,VALID,24.4433,VALID,284,VALID,0.607422,
2012-03-09, 00:53:04,VALID,1000.85,VALID,0,VALID,89.2655,VALID,0,VALID,24.4628,VALID,283,VALID,0.254687,
2012-03-09, 00:54:04,VALID,1000.88,VALID,0,VALID,89.4105,VALID,0,VALID,24.4609,VALID,283,VALID,0,
2012-03-09, 00:55:04,VALID,1000.83,VALID,0,VALID,89.4563,VALID,0,VALID,24.4822,VALID,283,VALID,0.369141,
2012-03-09, 00:56:04,VALID,1000.87,VALID,0,VALID,89.6775,VALID,0.0815089,VALID,24.3849,VALID,287,VALID,0.491016,
2012-03-09, 00:57:04,VALID,1000.81,VALID,0,VALID,90.0971,VALID,0.0815089,VALID,24.2662,VALID,301,VALID,0.467578,
2012-03-09, 00:58:04,VALID,1000.83,VALID,0,VALID,90.6235,VALID,0,VALID,24.1689,VALID,301,VALID,0.459375,
2012-03-09, 00:59:04,VALID,1000.81,VALID,0,VALID,91.0431,VALID,0.0815089,VALID,24.0503,VALID,301,VALID,0.312891,
2012-03-09, 01:00:04,VALID,1000.76,VALID,0,VALID,91.333,VALID,0.0815089,VALID,24.0345,VALID,301,VALID,0.290234,
2012-03-09, 01:01:04,VALID,1000.77,VALID,0,VALID,91.6229,VALID,0,VALID,23.9566,VALID,301,VALID,0.412109,
2012-03-09, 01:02:04,VALID,1000.72,VALID,0,VALID,91.8899,VALID,0.0815089,VALID,23.8964,VALID,301,VALID,0.389844,
2012-03-09, 01:03:04,VALID,1000.72,VALID,0,VALID,92.1111,VALID,0.0815089,VALID,23.838,VALID,301,VALID,0.425,
2012-03-09, 01:04:04,VALID,1000.69,VALID,0,VALID,92.3552,VALID,0,VALID,23.8009,VALID,301,VALID,0.358203,
2012-03-09, 01:05:04,VALID,1000.69,VALID,0,VALID,92.5154,VALID,0,VALID,23.7212,VALID,301,VALID,0.265234,
2012-03-09, 01:06:04,VALID,1000.69,VALID,0,VALID,92.6909,VALID,0,VALID,23.7017,VALID,301,VALID,0.00585938,
2012-03-09, 01:07:04,VALID,1000.69,VALID,0,VALID,92.8587,VALID,0.0815089,VALID,23.6646,VALID,301,VALID,0,
2012-03-09, 01:08:04,VALID,1000.72,VALID,0,VALID,92.9884,VALID,0.0815089,VALID,23.6452,VALID,301,VALID,0,
2012-03-09, 01:09:04,VALID,1000.69,VALID,0,VALID,93.1181,VALID,0.0815089,VALID,23.6044,VALID,301,VALID,0,
2012-03-09, 01:10:04,VALID,1000.74,VALID,0,VALID,93.2249,VALID,0.0815089,VALID,23.5637,VALID,301,VALID,0,
2012-03-09, 01:11:04,VALID,1000.7,VALID,0,VALID,93.3241,VALID,0.0815089,VALID,23.546,VALID,301,VALID,0,
2012-03-09, 01:12:04,VALID,1000.71,VALID,0,VALID,93.4309,VALID,0.0815089,VALID,23.5266,VALID,301,VALID,0,
2012-03-09, 01:13:04,VALID,1000.75,VALID,0,VALID,93.5224,VALID,0.0815089,VALID,23.5071,VALID,301,VALID,0,
2012-03-09, 01:14:04,VALID,1000.72,VALID,0,VALID,93.614,VALID,0.0815089,VALID,23.4664,VALID,301,VALID,0,
2012-03-09, 01:15:04,VALID,1000.75,VALID,0,VALID,93.7132,VALID,0.0815089,VALID,23.447,VALID,301,VALID,0,
2012-03-09, 01:16:04,VALID,1000.75,VALID,0,VALID,93.7361,VALID,0.0815089,VALID,23.4293,VALID,302,VALID,0,
2012-03-09, 01:17:04,VALID,1000.74,VALID,0,VALID,93.82,VALID,0.0815089,VALID,23.3886,VALID,303,VALID,0,
2012-03-09, 01:18:04,VALID,1000.72,VALID,0,VALID,93.881,VALID,0.0815089,VALID,23.4098,VALID,303,VALID,0,
2012-03-09, 01:19:04,VALID,1000.75,VALID,0,VALID,93.9191,VALID,0.0815089,VALID,23.3497,VALID,302,VALID,0,
2012-03-09, 01:20:04,VALID,1000.76,VALID,0,VALID,94.0107,VALID,0.0815089,VALID,23.3709,VALID,303,VALID,0,
2012-03-09, 01:21:04,VALID,1000.73,VALID,0,VALID,94.0031,VALID,0.0815089,VALID,23.3514,VALID,303,VALID,0,
2012-03-09, 01:22:04,VALID,1000.73,VALID,0,VALID,94.0259,VALID,0.0815089,VALID,23.3532,VALID,302,VALID,0,
2012-03-09, 01:23:04,VALID,1000.73,VALID,0,VALID,94.0412,VALID,0.0815089,VALID,23.3125,VALID,303,VALID,0,
2012-03-09, 01:24:04,VALID,1000.72,VALID,0,VALID,94.1175,VALID,0.0815089,VALID,23.2931,VALID,303,VALID,0,
2012-03-09, 01:25:04,VALID,1000.71,VALID,0,VALID,94.1556,VALID,0,VALID,23.2754,VALID,303,VALID,0,
2012-03-09, 01:26:04,VALID,1000.73,VALID,0,VALID,94.2014,VALID,0,VALID,23.2754,VALID,303,VALID,0,
2012-03-09, 01:27:04,VALID,1000.7,VALID,0,VALID,94.2701,VALID,0,VALID,23.2754,VALID,303,VALID,0,
2012-03-09, 01:28:04,VALID,1000.71,VALID,0,VALID,94.293,VALID,0,VALID,23.2559,VALID,303,VALID,0,
2012-03-09, 01:29:04,VALID,1000.68,VALID,0,VALID,94.2777,VALID,0,VALID,23.2364,VALID,303,VALID,0,
2012-03-09, 01:30:04,VALID,1000.67,VALID,0,VALID,94.3158,VALID,0,VALID,23.1957,VALID,303,VALID,0,
2012-03-09, 01:31:04,VALID,1000.67,VALID,0,VALID,94.3464,VALID,0,VALID,23.1957,VALID,303,VALID,0,
2012-03-09, 01:32:04,VALID,1000.65,VALID,0,VALID,94.3845,VALID,0,VALID,23.217,VALID,303,VALID,0,
2012-03-09, 01:33:04,VALID,1000.65,VALID,0,VALID,94.4379,VALID,0,VALID,23.1975,VALID,303,VALID,0,
2012-03-09, 01:34:04,VALID,1000.64,VALID,0,VALID,94.4684,VALID,0,VALID,23.178,VALID,315,VALID,0,
2012-03-09, 01:35:04,VALID,1000.59,VALID,0,VALID,94.4684,VALID,0,VALID,23.1586,VALID,322,VALID,0,
2012-03-09, 01:36:04,VALID,1000.59,VALID,0,VALID,94.4913,VALID,0,VALID,23.1374,VALID,322,VALID,0,
2012-03-09, 01:37:04,VALID,1000.57,VALID,0,VALID,94.5142,VALID,0,VALID,23.0984,VALID,322,VALID,0,
2012-03-09, 01:38:04,VALID,1000.55,VALID,0,VALID,94.5523,VALID,0,VALID,23.1391,VALID,322,VALID,0,
2012-03-09, 01:39:04,VALID,1000.54,VALID,0,VALID,94.5676,VALID,0,VALID,23.1197,VALID,322,VALID,0,
2012-03-09, 01:40:04,VALID,1000.53,VALID,0,VALID,94.6057,VALID,0.0815089,VALID,23.0967,VALID,328,VALID,0,
2012-03-09, 01:41:04,VALID,1000.53,VALID,0,VALID,94.6363,VALID,0.0815089,VALID,23.1179,VALID,331,VALID,0,
2012-03-09, 01:42:04,VALID,1000.52,VALID,0,VALID,94.682,VALID,0.0815089,VALID,23.0967,VALID,333,VALID,0,
2012-03-09, 01:43:04,VALID,1000.52,VALID,0,VALID,94.7049,VALID,0.0815089,VALID,23.1391,VALID,333,VALID,0,
2012-03-09, 01:44:04,VALID,1000.53,VALID,0,VALID,94.6973,VALID,0.163018,VALID,23.1179,VALID,333,VALID,0,
2012-03-09, 01:45:04,VALID,1000.53,VALID,0,VALID,94.7202,VALID,0.0815089,VALID,23.0984,VALID,333,VALID,0,
2012-03-09, 01:46:04,VALID,1000.53,VALID,0,VALID,94.7125,VALID,0.163018,VALID,23.0984,VALID,333,VALID,0,
2012-03-09, 01:47:04,VALID,1000.51,VALID,0,VALID,94.7431,VALID,0.0815089,VALID,23.0772,VALID,333,VALID,0,
2012-03-09, 01:48:04,VALID,1000.48,VALID,0,VALID,94.7202,VALID,0.0815089,VALID,23.079,VALID,333,VALID,0,
2012-03-09, 01:49:04,VALID,1000.45,VALID,0,VALID,94.7431,VALID,0.0815089,VALID,23.079,VALID,333,VALID,0,
2012-03-09, 01:50:04,VALID,1000.44,VALID,0,VALID,94.766,VALID,0.0815089,VALID,23.0578,VALID,333,VALID,0,
2012-03-09, 01:51:04,VALID,1000.43,VALID,0,VALID,94.7965,VALID,0.0815089,VALID,23.079,VALID,333,VALID,0,
2012-03-09, 01:52:04,VALID,1000.39,VALID,0,VALID,94.8346,VALID,0.0815089,VALID,23.0984,VALID,333,VALID,0,
2012-03-09, 01:53:04,VALID,1000.37,VALID,0,VALID,94.8194,VALID,0.0815089,VALID,23.0984,VALID,333,VALID,0,
2012-03-09, 01:54:04,VALID,1000.38,VALID,0,VALID,94.8117,VALID,0.0815089,VALID,23.079,VALID,333,VALID,0,
2012-03-09, 01:55:04,VALID,1000.36,VALID,0,VALID,94.8422,VALID,0,VALID,23.1002,VALID,333,VALID,0,
2012-03-09, 01:56:04,VALID,1000.36,VALID,0,VALID,94.8346,VALID,0,VALID,23.1002,VALID,333,VALID,0,
2012-03-09, 01:57:04,VALID,1000.36,VALID,0,VALID,94.8346,VALID,0,VALID,23.0595,VALID,333,VALID,0,
2012-03-09, 01:58:04,VALID,1000.35,VALID,0,VALID,94.8346,VALID,0,VALID,23.0807,VALID,333,VALID,0,
2012-03-09, 01:59:04,VALID,1000.34,VALID,0,VALID,94.8194,VALID,0,VALID,23.0401,VALID,333,VALID,0,
2012-03-09, 02:00:04,VALID,1000.35,VALID,0,VALID,94.8041,VALID,0,VALID,23.0418,VALID,333,VALID,0,
2012-03-09, 02:01:04,VALID,1000.33,VALID,0,VALID,94.766,VALID,0,VALID,23.0418,VALID,333,VALID,0,
2012-03-09, 02:02:04,VALID,1000.33,VALID,0,VALID,94.8194,VALID,0,VALID,23.0418,VALID,333,VALID,0,
2012-03-09, 02:03:04,VALID,1000.33,VALID,0,VALID,94.7888,VALID,0,VALID,23.0012,VALID,333,VALID,0,
2012-03-09, 02:04:04,VALID,1000.29,VALID,0,VALID,94.8194,VALID,0,VALID,23.0012,VALID,333,VALID,0,
2012-03-09, 02:05:04,VALID,1000.28,VALID,0,VALID,94.8422,VALID,0,VALID,23.0224,VALID,333,VALID,0,
2012-03-09, 02:06:04,VALID,1000.26,VALID,0,VALID,94.8422,VALID,0,VALID,23.0012,VALID,333,VALID,0,
2012-03-09, 02:07:04,VALID,1000.22,VALID,0,VALID,94.888,VALID,0,VALID,23.0224,VALID,333,VALID,0,
2012-03-09, 02:08:04,VALID,1000.23,VALID,0,VALID,94.9414,VALID,0,VALID,23.0206,VALID,333,VALID,0,
2012-03-09, 02:09:04,VALID,1000.22,VALID,0,VALID,94.949,VALID,0,VALID,23.0418,VALID,333,VALID,0,
2012-03-09, 02:10:04,VALID,1000.2,VALID,0,VALID,94.9109,VALID,0.0815089,VALID,23.0206,VALID,333,VALID,0,
2012-03-09, 02:11:04,VALID,1000.18,VALID,0,VALID,94.8956,VALID,0.0815089,VALID,22.9994,VALID,333,VALID,0,
2012-03-09, 02:12:04,VALID,1000.16,VALID,0,VALID,94.8956,VALID,0.0815089,VALID,23.0206,VALID,333,VALID,0,
2012-03-09, 02:13:04,VALID,1000.17,VALID,0,VALID,94.8651,VALID,0,VALID,23.0012,VALID,333,VALID,0,
2012-03-09, 02:14:04,VALID,1000.15,VALID,0,VALID,94.8804,VALID,0.0815089,VALID,22.9817,VALID,333,VALID,0,
2012-03-09, 02:15:04,VALID,1000.15,VALID,0,VALID,94.9185,VALID,0.0815089,VALID,22.98,VALID,333,VALID,0,
2012-03-09, 02:16:04,VALID,1000.1,VALID,0,VALID,94.9643,VALID,0.0815089,VALID,23.0206,VALID,333,VALID,0,
2012-03-09, 02:17:04,VALID,1000.09,VALID,0,VALID,95.0101,VALID,0.0815089,VALID,23.0401,VALID,333,VALID,0,
2012-03-09, 02:18:04,VALID,1000.1,VALID,0,VALID,94.9948,VALID,0.0815089,VALID,23.0383,VALID,333,VALID,0,
2012-03-09, 02:19:04,VALID,1000.1,VALID,0,VALID,94.9643,VALID,0.0815089,VALID,23.0383,VALID,333,VALID,0,
2012-03-09, 02:20:04,VALID,1000.1,VALID,0,VALID,94.9567,VALID,0.0815089,VALID,23.0189,VALID,333,VALID,0,
2012-03-09, 02:21:04,VALID,1000.08,VALID,0,VALID,94.9872,VALID,0,VALID,23.0613,VALID,333,VALID,0,
2012-03-09, 02:22:04,VALID,1000.08,VALID,0,VALID,94.9719,VALID,0,VALID,23.0613,VALID,333,VALID,0,
2012-03-09, 02:23:04,VALID,1000.04,VALID,0,VALID,94.9414,VALID,0,VALID,23.0401,VALID,333,VALID,0,
2012-03-09, 02:24:04,VALID,1000.06,VALID,0,VALID,94.9643,VALID,0,VALID,23.0206,VALID,333,VALID,0,
2012-03-09, 02:25:04,VALID,1000.04,VALID,0,VALID,94.9643,VALID,0,VALID,23.0613,VALID,333,VALID,0,
2012-03-09, 02:26:04,VALID,1000,VALID,0,VALID,94.949,VALID,0,VALID,23.0613,VALID,333,VALID,0,
2012-03-09, 02:27:04,VALID,1000.01,VALID,0,VALID,94.9643,VALID,0,VALID,23.0418,VALID,333,VALID,0,
2012-03-09, 02:28:04,VALID,999.989,VALID,0,VALID,94.9338,VALID,0,VALID,23.0401,VALID,333,VALID,0,
2012-03-09, 02:29:04,VALID,999.957,VALID,0,VALID,94.9567,VALID,0,VALID,23.0595,VALID,333,VALID,0,
2012-03-09, 02:30:04,VALID,999.967,VALID,0,VALID,94.9185,VALID,0,VALID,23.0418,VALID,333,VALID,0,
2012-03-09, 02:31:04,VALID,999.958,VALID,0,VALID,94.888,VALID,0,VALID,23.0224,VALID,333,VALID,0,
2012-03-09, 02:32:04,VALID,999.949,VALID,0,VALID,94.8804,VALID,0,VALID,23.0224,VALID,333,VALID,0,
2012-03-09, 02:33:04,VALID,999.962,VALID,0,VALID,94.8651,VALID,0,VALID,23.0029,VALID,333,VALID,0,
2012-03-09, 02:34:04,VALID,999.996,VALID,0,VALID,94.949,VALID,0,VALID,23.0206,VALID,333,VALID,0,
2012-03-09, 02:35:04,VALID,999.951,VALID,0,VALID,94.9185,VALID,0,VALID,23.0224,VALID,333,VALID,0,
2012-03-09, 02:36:04,VALID,999.976,VALID,0,VALID,94.9414,VALID,0,VALID,23.0224,VALID,333,VALID,0,
2012-03-09, 02:37:04,VALID,999.983,VALID,0,VALID,94.8956,VALID,0,VALID,22.9834,VALID,333,VALID,0,
2012-03-09, 02:38:04,VALID,999.972,VALID,0,VALID,94.9033,VALID,0,VALID,22.9834,VALID,333,VALID,0,
2012-03-09, 02:39:04,VALID,999.929,VALID,0,VALID,94.8956,VALID,0,VALID,22.964,VALID,333,VALID,0,
2012-03-09, 02:40:04,VALID,999.951,VALID,0,VALID,94.9262,VALID,0,VALID,22.9445,VALID,333,VALID,0,
2012-03-09, 02:41:04,VALID,999.926,VALID,0,VALID,94.9338,VALID,0,VALID,22.9852,VALID,333,VALID,0,
2012-03-09, 02:42:04,VALID,999.9,VALID,0,VALID,95.0101,VALID,0,VALID,22.964,VALID,333,VALID,0,
2012-03-09, 02:43:04,VALID,999.879,VALID,0,VALID,95.0024,VALID,0,VALID,22.9428,VALID,333,VALID,0,
2012-03-09, 02:44:04,VALID,999.865,VALID,0,VALID,94.9414,VALID,0,VALID,22.9445,VALID,333,VALID,0,
2012-03-09, 02:45:04,VALID,999.889,VALID,0,VALID,94.9338,VALID,0,VALID,22.9251,VALID,333,VALID,0,
2012-03-09, 02:46:04,VALID,999.879,VALID,0,VALID,94.888,VALID,0,VALID,22.9056,VALID,333,VALID,0,
2012-03-09, 02:47:04,VALID,999.879,VALID,0,VALID,94.8956,VALID,0,VALID,22.8861,VALID,333,VALID,0,
2012-03-09, 02:48:04,VALID,999.896,VALID,0,VALID,94.949,VALID,0,VALID,22.8861,VALID,333,VALID,0,
2012-03-09, 02:49:04,VALID,999.88,VALID,0,VALID,94.9719,VALID,0,VALID,22.8667,VALID,333,VALID,0,
2012-03-09, 02:50:04,VALID,999.882,VALID,0,VALID,94.9719,VALID,0,VALID,22.8667,VALID,333,VALID,0,
2012-03-09, 02:51:04,VALID,999.893,VALID,0,VALID,95.0024,VALID,0,VALID,22.8667,VALID,333,VALID,0,
2012-03-09, 02:52:04,VALID,999.868,VALID,0,VALID,95.033,VALID,0,VALID,22.8472,VALID,333,VALID,0,
2012-03-09, 02:53:04,VALID,999.866,VALID,0,VALID,95.0101,VALID,0,VALID,22.826,VALID,333,VALID,0,
2012-03-09, 02:54:04,VALID,999.865,VALID,0,VALID,95.0787,VALID,0,VALID,22.8472,VALID,333,VALID,0,
2012-03-09, 02:55:04,VALID,999.85,VALID,0,VALID,95.1093,VALID,0,VALID,22.8667,VALID,340,VALID,0.867188,
2012-03-09, 02:56:04,VALID,999.835,VALID,0,VALID,95.1016,VALID,0,VALID,22.8861,VALID,341,VALID,0.833984,
2012-03-09, 02:57:04,VALID,999.834,VALID,0,VALID,95.1169,VALID,0,VALID,22.8667,VALID,341,VALID,0.660156,
2012-03-09, 02:58:04,VALID,999.851,VALID,0,VALID,95.1169,VALID,0,VALID,22.8667,VALID,340,VALID,0.601563,
2012-03-09, 02:59:04,VALID,999.847,VALID,0,VALID,95.1169,VALID,0,VALID,22.8667,VALID,341,VALID,0.426562,
2012-03-09, 03:00:04,VALID,999.872,VALID,0,VALID,95.1398,VALID,0,VALID,22.8861,VALID,340,VALID,0.529688,
2012-03-09, 03:01:04,VALID,999.863,VALID,0,VALID,95.1321,VALID,0,VALID,22.8861,VALID,340,VALID,0.539453,
2012-03-09, 03:02:04,VALID,999.868,VALID,0,VALID,95.1016,VALID,0,VALID,22.8879,VALID,340,VALID,0.545313,
2012-03-09, 03:03:04,VALID,999.866,VALID,0,VALID,95.0558,VALID,0,VALID,22.8472,VALID,341,VALID,0.491016,
2012-03-09, 03:04:04,VALID,999.865,VALID,0,VALID,95.0711,VALID,0,VALID,22.8489,VALID,340,VALID,0.450391,
2012-03-09, 03:05:04,VALID,999.863,VALID,0,VALID,95.0787,VALID,0,VALID,22.8278,VALID,341,VALID,0.383984,
2012-03-09, 03:06:04,VALID,999.855,VALID,0,VALID,95.1093,VALID,0,VALID,22.7871,VALID,341,VALID,0.400391,
2012-03-09, 03:07:04,VALID,999.868,VALID,0,VALID,95.1016,VALID,0,VALID,22.8278,VALID,340,VALID,0.352734,
2012-03-09, 03:08:04,VALID,999.863,VALID,0,VALID,95.1321,VALID,0,VALID,22.8472,VALID,340,VALID,0.390625,
2012-03-09, 03:09:04,VALID,999.86,VALID,0,VALID,95.1245,VALID,0,VALID,22.8066,VALID,341,VALID,0.427734,
2012-03-09, 03:10:04,VALID,999.853,VALID,0,VALID,95.155,VALID,0,VALID,22.8278,VALID,341,VALID,0.467187,
2012-03-09, 03:11:04,VALID,999.878,VALID,0,VALID,95.1398,VALID,0,VALID,22.8278,VALID,340,VALID,0.451953,
2012-03-09, 03:12:04,VALID,999.87,VALID,0,VALID,95.1245,VALID,0,VALID,22.8472,VALID,340,VALID,0.337891,
2012-03-09, 03:13:04,VALID,999.878,VALID,0,VALID,95.1169,VALID,0,VALID,22.8066,VALID,340,VALID,0.341016,
2012-03-09, 03:14:04,VALID,999.86,VALID,0,VALID,95.1016,VALID,0,VALID,22.8083,VALID,341,VALID,0.363672,
2012-03-09, 03:15:04,VALID,999.877,VALID,0,VALID,95.1321,VALID,0,VALID,22.8278,VALID,341,VALID,0.444141,
2012-03-09, 03:16:04,VALID,999.879,VALID,0,VALID,95.1321,VALID,0,VALID,22.8278,VALID,341,VALID,0.417188,
2012-03-09, 03:17:04,VALID,999.846,VALID,0,VALID,95.1169,VALID,0,VALID,22.8295,VALID,341,VALID,0.419922,
2012-03-09, 03:18:04,VALID,999.842,VALID,0,VALID,95.1398,VALID,0,VALID,22.8489,VALID,340,VALID,0.432422,
2012-03-09, 03:19:04,VALID,999.857,VALID,0,VALID,95.155,VALID,0,VALID,22.8066,VALID,340,VALID,0.45,
2012-03-09, 03:20:04,VALID,999.843,VALID,0,VALID,95.155,VALID,0,VALID,22.8278,VALID,340,VALID,0.466797,
2012-03-09, 03:21:04,VALID,999.829,VALID,0,VALID,95.1093,VALID,0,VALID,22.8278,VALID,340,VALID,0.471094,
2012-03-09, 03:22:04,VALID,999.831,VALID,0,VALID,95.1093,VALID,0,VALID,22.7888,VALID,341,VALID,0.558594,
2012-03-09, 03:23:04,VALID,999.821,VALID,0,VALID,95.1245,VALID,0,VALID,22.8083,VALID,340,VALID,0.508594,
2012-03-09, 03:24:04,VALID,999.801,VALID,0,VALID,95.1398,VALID,0,VALID,22.8083,VALID,341,VALID,0.583984,
2012-03-09, 03:25:04,VALID,999.851,VALID,0,VALID,95.155,VALID,0,VALID,22.8295,VALID,340,VALID,0.569531,
2012-03-09, 03:26:04,VALID,999.828,VALID,0,VALID,95.155,VALID,0,VALID,22.8278,VALID,340,VALID,0.436719,
2012-03-09, 03:27:04,VALID,999.796,VALID,0,VALID,95.1398,VALID,0,VALID,22.8083,VALID,341,VALID,0.508203,
2012-03-09, 03:28:04,VALID,999.815,VALID,0,VALID,95.1245,VALID,0,VALID,22.7888,VALID,341,VALID,0.520703,
2012-03-09, 03:29:04,VALID,999.799,VALID,0,VALID,95.094,VALID,0,VALID,22.7694,VALID,340,VALID,0.5625,
2012-03-09, 03:30:04,VALID,999.804,VALID,0,VALID,95.0864,VALID,0,VALID,22.7305,VALID,340,VALID,0.499609,
2012-03-09, 03:31:04,VALID,999.769,VALID,0,VALID,95.1321,VALID,0,VALID,22.7711,VALID,340,VALID,0.505078,
2012-03-09, 03:32:04,VALID,999.78,VALID,0,VALID,95.1398,VALID,0,VALID,22.7516,VALID,341,VALID,0.510547,
2012-03-09, 03:33:04,VALID,999.792,VALID,0,VALID,95.1779,VALID,0,VALID,22.7499,VALID,340,VALID,0.529688,
2012-03-09, 03:34:04,VALID,999.744,VALID,0,VALID,95.1855,VALID,0,VALID,22.7888,VALID,341,VALID,0.669531,
2012-03-09, 03:35:04,VALID,999.759,VALID,0,VALID,95.2008,VALID,0,VALID,22.7888,VALID,340,VALID,0.598828,
2012-03-09, 03:36:04,VALID,999.714,VALID,0,VALID,95.1855,VALID,0,VALID,22.7677,VALID,341,VALID,0.373437,
2012-03-09, 03:37:04,VALID,999.73,VALID,0,VALID,95.2237,VALID,0,VALID,22.8083,VALID,340,VALID,0.348828,
2012-03-09, 03:38:04,VALID,999.728,VALID,0,VALID,95.2161,VALID,0,VALID,22.7888,VALID,340,VALID,0.316406,
2012-03-09, 03:39:04,VALID,999.727,VALID,0,VALID,95.2695,VALID,0,VALID,22.8083,VALID,340,VALID,0.328516,
2012-03-09, 03:40:04,VALID,999.746,VALID,0,VALID,95.2923,VALID,0,VALID,22.8066,VALID,340,VALID,0.396875,
2012-03-09, 03:41:04,VALID,999.753,VALID,0,VALID,95.3,VALID,0,VALID,22.8472,VALID,341,VALID,0.420703,
2012-03-09, 03:42:04,VALID,999.742,VALID,0,VALID,95.2771,VALID,0,VALID,22.8667,VALID,340,VALID,0.501562,
2012-03-09, 03:43:04,VALID,999.784,VALID,0,VALID,95.3076,VALID,0,VALID,22.8667,VALID,341,VALID,0.465234,
2012-03-09, 03:44:04,VALID,999.781,VALID,0,VALID,95.2847,VALID,0,VALID,22.8667,VALID,340,VALID,0.461328,
2012-03-09, 03:45:04,VALID,999.752,VALID,0,VALID,95.2847,VALID,0,VALID,22.8455,VALID,340,VALID,0.499609,
2012-03-09, 03:46:04,VALID,999.799,VALID,0,VALID,95.2771,VALID,0,VALID,22.8667,VALID,341,VALID,0.532812,
2012-03-09, 03:47:04,VALID,999.783,VALID,0,VALID,95.2847,VALID,0,VALID,22.8861,VALID,340,VALID,0.489453,